STARLINK-35553, 66120

Orbit data source: Space-Track

STARLINK-35553, 66120 is a payload satellite owned by SpaceX/Seattle (US) in LEO that was launched on Wed, 22 Oct 2025 UTC via an FALCON 9 launch vehicle from the Air Force Western Test Range (AFWTR). Payload-class satellites include a variety of spacecraft equipped with specific instruments for various scientific and technological missions. These include communications satellites like Starlink; space stations such as the ISS; scientific satellites like the Hubble; Earth observation satellites from companies like Planet Labs, Umbra, and HawkEye 360; GPS; miniature CubeSats for education and research; and military/defense satellites.

Loading next visibility...
Identifier
66120, 2025-237G
Orbit
LEO
Country
Flag of USUS
Related business
Manufacturer
SpaceX/Seattle
Mission
Operational Commercial Communications
Bus & Motor
STARLINK V2MO, Unknown motor
Mass
575 kg wet, ~530 kg dry
Launch date (UTC)
2025-10-22 (4 months ago)
Launch vehicle
FALCON 9
Launch site
Air Force Western Test Range (AFWTR)
Object type
Payload
Rocket body
Debris
Shape & HBR
Box + 2 Pan, 17.7 m
Radar Cross Section
36.964 m²

Expand to show TLE details & history
Last TLE update: 18 hours ago

TLE from 18 hours ago
0 STARLINK-35553
1 66120U 25237G   26061.33222960  .00014444  00000-0  49873-3 0  9997
2 66120  53.1603  73.8348 0001607  85.4320 274.6864 15.30208283 21488
Epoch: 2026-03-02T07:58Z
TLE epoch observation values (Epoch: 2026-03-02T07:58:24.637Z)
Latitude
-0.00004°
Longitude
154.10495°
Altitude
476 km
Speed
7.629 km/s
True Right ascension
04h 55m 20s
True Declination
0° 00' 00"
Sunlit
Object was in daylight at epoch
Visualization orbit readout
Latitude
Unknown
Longitude
Unknown
Altitude
Unknown
Speed
Unknown
Apparent Right ascension
Unknown
Apparent Declination
Unknown
Sunlit
N/A
Visualization observer readout
Local Sidereal Time
05:26:36
Azimuth
Unknown
Elevation
Unknown
Doppler factor
Unknown
Orbital elements
Apogee altitude
476.548 km
Perigee altitude
474.345 km
Semi-major axis
6,853.584 km
Eccentricity
0.00016
Inclination
53.1603°
RAAN
73.8348°
Arg. of periapsis
85.432°
True anomaly
274.66805°
Mean anomaly
274.6864°
Eccentric anomaly
274.67722°
Mean motion
3.82531 °/min
Orbital period
94.11 mins
BSTAR
0.00049873
Loading maneuver chart data...
Computing Atmospheric mass density...
Loading historical data...
Loading historical data...
Loading historical data...
Loading historical data...
Loading historical data...
Loading historical data...
Loading historical data...

Documentation

Showing up to 5 results
|